Murray, KY

9:39 PM CDT on April 30, 2017 (GMT -0500)
Kyle-Oakley

Weather History for KCEY - October, 2011

Change the Weather History Date:

Saturday, October 29, 2011

  Actual Average (KPAH) Record (KPAH)
Temperature  
Mean Temperature 46 °F -  
Max Temperature 59 °F 65 °F 85 °F (1950)
Min Temperature 32 °F 43 °F 23 °F (1952)
Degree Days  
Heating Degree Days 20    
Moisture  
Dew Point 30 °F    
Average Humidity 60    
Maximum Humidity 100    
Minimum Humidity 22    
Precipitation  
Precipitation 0.00 in - - ()
Sea Level Pressure  
Sea Level Pressure 30.16 in    
Wind  
Wind Speed 5 mph (West)    
Max Wind Speed 13 mph    
Max Gust Speed 17 mph    
Visibility 10 miles    
Events      
Averages and records for this station are not official NWS values.
T = Trace of Precipitation, MM = Missing Value Source: NWS Daily Summary

Daily Weather History Graph

Daily Weather History Graph

Search for Another Location

Airport or City:

Trip Planner

Search our weather history database for the weather conditions in past years. The results will help you decide how hot, cold, wet, or windy it might be!

Date:

Astronomy

Oct. 29, 2011 Rise Set
Actual Time 7:13 AM CDT 6:00 PM CDT
Civil Twilight 6:47 AM CDT 6:26 PM CDT
Nautical Twilight 6:16 AM CDT 6:57 PM CDT
Astronomical Twilight 5:46 AM CDT 7:27 PM CDT
Moon 10:30 AM CDT (10/29) 8:28 PM CDT (10/29)
Length of Visible Light 11h 39m
Length of Day
10h 46m
Waxing Crescent, 12% of the Moon is Illuminated
Oct 29
Waxing Crescent
Nov 2
First Quarter
Nov 10
Full
Nov 18
Last Quarter
Nov 25
New

Hourly Weather History & Observations

Time (CDT) Temp. Windchill Dew Point Humidity Pressure Visibility Wind Dir Wind Speed Gust Speed Precip Events Conditions
12:15 AM 37.4 °F 34.9 °F 33.8 °F 87% 30.15 in 10.0 mi SW 3.5 mph - N/A   Unknown
12:35 AM 35.6 °F 31.7 °F 32.0 °F 87% 30.15 in 10.0 mi SW 4.6 mph - N/A   Unknown
12:55 AM 35.6 °F 32.8 °F 32.0 °F 87% 30.16 in 10.0 mi SW 3.5 mph - N/A   Unknown
1:15 AM 35.6 °F 32.8 °F 32.0 °F 87% 30.16 in 10.0 mi SW 3.5 mph - N/A   Unknown
1:35 AM 33.8 °F 30.8 °F 32.0 °F 93% 30.15 in 10.0 mi SW 3.5 mph - N/A   Unknown
1:55 AM 35.6 °F 30.7 °F 32.0 °F 87% 30.16 in 9.0 mi SW 5.8 mph - N/A   Unknown
2:35 AM 37.4 °F 32.1 °F 32.0 °F 81% 30.16 in 9.0 mi SW 6.9 mph - N/A   Unknown
3:15 AM 37.4 °F 32.1 °F 32.0 °F 81% 30.15 in 10.0 mi SW 6.9 mph - N/A   Unknown
3:35 AM 37.4 °F 32.8 °F 32.0 °F 81% 30.14 in 9.0 mi SW 5.8 mph - N/A   Unknown
3:55 AM 37.4 °F 33.8 °F 32.0 °F 81% 30.14 in 10.0 mi SSW 4.6 mph - N/A   Unknown
4:15 AM 37.4 °F 33.8 °F 32.0 °F 81% 30.14 in 10.0 mi SSW 4.6 mph - N/A   Unknown
4:35 AM 39.2 °F 35.0 °F 32.0 °F 75% 30.14 in 10.0 mi SSW 5.8 mph - N/A   Unknown
4:55 AM 37.4 °F 32.8 °F 32.0 °F 81% 30.14 in 10.0 mi SW 5.8 mph - N/A   Unknown
5:15 AM 35.6 °F 29.9 °F 32.0 °F 87% 30.14 in 10.0 mi SW 6.9 mph - N/A   Unknown
5:35 AM 37.4 °F 32.8 °F 32.0 °F 81% 30.14 in 10.0 mi SW 5.8 mph - N/A   Unknown
5:55 AM 35.6 °F - 32.0 °F 87% 30.13 in 10.0 mi Calm Calm - N/A   Unknown
6:15 AM 35.6 °F 32.8 °F 32.0 °F 87% 30.14 in 10.0 mi SSW 3.5 mph - N/A   Unknown
6:35 AM 32.0 °F - 30.2 °F 93% 30.14 in 10.0 mi Calm Calm - N/A   Unknown
6:55 AM 32.0 °F 28.7 °F 32.0 °F 100% 30.14 in 10.0 mi SSW 3.5 mph - N/A   Unknown
7:15 AM 32.0 °F - 32.0 °F 100% 30.14 in 10.0 mi Calm Calm - N/A   Unknown
7:35 AM 32.0 °F 28.7 °F 32.0 °F 100% 30.15 in 8.0 mi SW 3.5 mph - N/A   Unknown
7:55 AM 37.4 °F 32.8 °F 32.0 °F 81% 30.15 in 10.0 mi SW 5.8 mph - N/A   Unknown
8:15 AM 41.0 °F 36.4 °F 33.8 °F 76% 30.16 in 10.0 mi SW 6.9 mph - N/A   Unknown
8:55 AM 44.6 °F 40.2 °F 35.6 °F 71% 30.18 in 10.0 mi WSW 8.1 mph - N/A   Unknown
9:15 AM 44.6 °F 40.2 °F 37.4 °F 76% 30.19 in 10.0 mi WSW 8.1 mph - N/A   Unknown
9:35 AM 46.4 °F 42.9 °F 37.4 °F 71% 30.19 in 10.0 mi West 6.9 mph - N/A   Unknown
9:55 AM 46.4 °F 42.9 °F 37.4 °F 71% 30.19 in 10.0 mi West 6.9 mph - N/A   Unknown
10:15 AM 48.2 °F - 37.4 °F 66% 30.20 in 10.0 mi WSW 8.1 mph - N/A   Unknown
10:35 AM 50.0 °F - 37.4 °F 62% 30.20 in 10.0 mi West 4.6 mph - N/A   Unknown
10:55 AM 50.0 °F - 35.6 °F 58% 30.20 in 10.0 mi WNW 6.9 mph - N/A   Unknown
11:15 AM 53.6 °F - 35.6 °F 51% 30.21 in 10.0 mi NW 5.8 mph - N/A   Unknown
11:35 AM 55.4 °F - 33.8 °F 44% 30.20 in 10.0 mi WNW 5.8 mph - N/A   Unknown
11:55 AM 55.4 °F - 33.8 °F 44% 30.20 in 10.0 mi NW 8.1 mph - N/A   Unknown
12:15 PM 55.4 °F - 32.0 °F 41% 30.20 in 10.0 mi WNW 11.5 mph 17.3 mph N/A   Unknown
12:35 PM 55.4 °F - 28.4 °F 36% 30.19 in 10.0 mi NNW 10.4 mph - N/A   Unknown
12:55 PM 57.2 °F - 28.4 °F 33% 30.19 in 10.0 mi WNW 5.8 mph - N/A   Unknown
1:15 PM 57.2 °F - 26.6 °F 31% 30.17 in 10.0 mi NNW 9.2 mph - N/A   Unknown
1:35 PM 59.0 °F - 24.8 °F 27% 30.17 in 10.0 mi West 9.2 mph - N/A   Unknown
1:55 PM 59.0 °F - 19.4 °F 22% 30.16 in 10.0 mi NNW 12.7 mph 17.3 mph N/A   Unknown
2:15 PM 59.0 °F - 21.2 °F 23% 30.16 in 10.0 mi NNW 10.4 mph - N/A   Unknown
2:35 PM 57.2 °F - 23.0 °F 27% 30.15 in 10.0 mi NNW 11.5 mph - N/A   Unknown
2:55 PM 57.2 °F - 24.8 °F 29% 30.15 in 10.0 mi NNW 10.4 mph - N/A   Unknown
3:15 PM 57.2 °F - 24.8 °F 29% 30.15 in 10.0 mi West 6.9 mph - N/A   Unknown
3:35 PM 59.0 °F - 24.8 °F 27% 30.14 in 10.0 mi NW 8.1 mph - N/A   Unknown
3:55 PM 57.2 °F - 23.0 °F 27% 30.15 in 10.0 mi NW 6.9 mph - N/A   Unknown
4:15 PM 57.2 °F - 24.8 °F 29% 30.15 in 10.0 mi NNW 6.9 mph - N/A   Unknown
4:35 PM 57.2 °F - 23.0 °F 27% 30.14 in 10.0 mi North 10.4 mph - N/A   Unknown
4:55 PM 57.2 °F - 23.0 °F 27% 30.14 in 10.0 mi NNW 4.6 mph - N/A   Unknown
5:15 PM 57.2 °F - 24.8 °F 29% 30.15 in 8.0 mi WNW 3.5 mph - N/A   Unknown
5:35 PM 55.4 °F - 23.0 °F 29% 30.15 in 10.0 mi Calm Calm - N/A   Unknown
5:55 PM 50.0 °F - 24.8 °F 37% 30.15 in 10.0 mi Calm Calm - N/A   Unknown
6:15 PM 48.2 °F - 28.4 °F 46% 30.15 in 10.0 mi Calm Calm - N/A   Unknown
6:35 PM 46.4 °F - 28.4 °F 50% 30.16 in 10.0 mi Calm Calm - N/A   Unknown
6:55 PM 48.2 °F - 26.6 °F 43% 30.16 in 10.0 mi Calm Calm - N/A   Unknown
7:15 PM 46.4 °F - 28.4 °F 50% 30.17 in 10.0 mi Calm Calm - N/A   Unknown
7:35 PM 44.6 °F - 26.6 °F 49% 30.17 in 10.0 mi Calm Calm - N/A   Unknown
7:55 PM 41.0 °F 39.0 °F 30.2 °F 65% 30.17 in 10.0 mi WSW 3.5 mph - N/A   Unknown
8:15 PM 44.6 °F 43.1 °F 26.6 °F 49% 30.17 in 10.0 mi SW 3.5 mph - N/A   Unknown
8:35 PM 41.0 °F - 28.4 °F 61% 30.17 in 10.0 mi Calm Calm - N/A   Unknown
8:55 PM 39.2 °F 37.0 °F 32.0 °F 75% 30.17 in 10.0 mi South 3.5 mph - N/A   Unknown
9:15 PM 41.0 °F - 30.2 °F 65% 30.17 in 10.0 mi Calm Calm - N/A   Unknown
9:35 PM 37.4 °F 34.9 °F 32.0 °F 81% 30.17 in 10.0 mi SSE 3.5 mph - N/A   Unknown
9:55 PM 37.4 °F 34.9 °F 32.0 °F 81% 30.17 in 10.0 mi SSE 3.5 mph - N/A   Unknown
10:15 PM 39.2 °F - 32.0 °F 75% 30.17 in 10.0 mi Calm Calm - N/A   Unknown
10:35 PM 37.4 °F 34.9 °F 32.0 °F 81% 30.17 in 9.0 mi SSE 3.5 mph - N/A   Unknown
10:55 PM 41.0 °F 39.0 °F 30.2 °F 65% 30.17 in 10.0 mi SW 3.5 mph - N/A   Unknown
11:15 PM 39.2 °F - 32.0 °F 75% 30.17 in 10.0 mi Calm Calm - N/A   Unknown
11:35 PM 39.2 °F - 32.0 °F 75% 30.17 in 9.0 mi Calm Calm - N/A   Unknown
11:55 PM 39.2 °F 37.0 °F 32.0 °F 75% 30.17 in 10.0 mi South 3.5 mph - N/A   Unknown